This is the latest recevied weather packets stored in our database for station/object WD4ITN. If no packets are shown the sender has not sent any weather packets the latest 10 day(s).
| Time | Temp. | Humidity | Pressure | Rain* | Wind** | Luminosity | Snow |
|---|---|---|---|---|---|---|---|
| 1778167410 | 12.22° C | 70% | 1009.7 hPa | 0 mm | - | - | - |
| 1778167111 | 12.22° C | 69% | 1009.7 hPa | 0 mm | - | - | - |
| 1778166803 | 12.22° C | 68% | 1009.8 hPa | 0 mm | - | - | - |
| 1778166499 | 12.22° C | 72% | 1009.8 hPa | 0 mm | - | - | - |
| 1778166200 | 11.67° C | 73% | 1009.8 hPa | 0 mm | - | - | - |
| 1778165913 | 11.11° C | 72% | 1009.8 hPa | 0 mm | - | - | - |
| 1778165611 | 11.11° C | 75% | 1009.8 hPa | 0 mm | - | - | - |
| 1778165314 | 10.56° C | 77% | 1009.9 hPa | 0 mm | - | - | - |
| 1778165011 | 10° C | 75% | 1009.9 hPa | 0 mm | - | - | - |
| 1778164709 | 10° C | 76% | 1010 hPa | 0 mm | - | - | - |
| 1778164409 | 9.44° C | 75% | 1010.1 hPa | 0 mm | - | - | - |
| 1778164097 | 9.44° C | 78% | 1010.2 hPa | 0 mm | - | - | - |
| 1778163813 | 9.44° C | 80% | 1010.2 hPa | 0 mm | - | - | - |
| 1778163515 | 9.44° C | 81% | 1010.2 hPa | 0 mm | - | - | - |
| 1778163202 | 9.44° C | 82% | 1010.4 hPa | 0 mm | - | - | - |
| 1778162903 | 9.44° C | 82% | 1010.4 hPa | 0 mm | - | - | - |
| 1778162600 | 8.89° C | 83% | 1010.5 hPa | 0 mm | - | - | - |
| 1778162319 | 8.89° C | 82% | 1010.5 hPa | 0 mm | - | - | - |
| 1778162008 | 8.89° C | 82% | 1010.6 hPa | 0 mm | - | - | - |
| 1778161705 | 8.89° C | 81% | 1010.6 hPa | 0 mm | - | - | - |
| 1778161397 | 8.89° C | 80% | 1010.6 hPa | 0 mm | - | - | - |
| 1778161114 | 8.89° C | 82% | 1011.3 hPa | 0 mm | - | - | - |
| 1778160811 | 8.89° C | 83% | 1011.5 hPa | 0 mm | - | - | - |
| 1778160499 | 8.89° C | 85% | 1011.5 hPa | 0 mm | - | - | - |
| 1778160199 | 8.89° C | 86% | 1011.4 hPa | 0 mm | - | - | - |
* Rain since midnight (hover to see other rain measurements)
** Current wind speed in m/s (hover to see current wind gust speed)